Terminal Aerodrome Forecast
Issued by NWS Sterling, VA

Home | Current Version | Previous Version | Text Only | Print | Product List | Glossary On
Versions: 1 2 3 4 5 6 7 8 9 10 11 12 13 14 15 16 17 18 19 20 21 22 23
000
FTUS41 KLWX 010900 AAA
TAFBWI
TAF AMD
KBWI 010905Z 0109/0212 04004KT P6SM SCT014 BKN035
      TEMPO 0109/0111 VRB04KT 5SM BR BKN012 BKN035
     FM011200 05005KT 5SM BR SCT008 BKN010
     FM011600 05005KT P6SM BKN035
     FM011800 05005KT P6SM SCT060
     FM020600 VRB03KT P6SM SCT035 BKN060=

USA.gov is the U.S. government's official web portal to all federal, state and local government web resources and services.